Weather History for LEAM - February, 2013

Change the Weather History Date:

Sunday, February 3, 2013

  Actual Average Record
Temperature  
Mean Temperature 57 °F -  
Max Temperature 64 °F 60 °F 66 °F (1998)
Min Temperature 50 °F 47 °F 39 °F (2012)
Degree Days  
Heating Degree Days 8    
Growing Degree Days 7 (Base 50)    
Moisture  
Dew Point 26 °F    
Average Humidity 31    
Maximum Humidity 62    
Minimum Humidity 9    
Precipitation  
Precipitation 0.00 in 0.02 in - ()
Sea Level Pressure  
Sea Level Pressure 30.24 in    
Wind  
Wind Speed 17 mph ()    
Max Wind Speed 30 mph    
Max Gust Speed 45 mph    
Visibility 7.3 miles    
Events      
Averages and records for this station are not official NWS values.
T = Trace of Precipitation, MM = Missing Value Source: Averaged Metar Reports

Daily Weather History Graph

Daily Weather History Graph

Search for Another Location

Airport or City:

Trip Planner

Search our weather history database for the weather conditions in past years. The results will help you decide how hot, cold, wet, or windy it might be!

Date:

Astronomy

Feb. 03, 2013 Rise Set
Actual Time 8:09 AM CET 6:37 PM CET
Civil Twilight 7:42 AM CET 7:04 PM CET
Nautical Twilight 7:11 AM CET 7:35 PM CET
Astronomical Twilight 6:41 AM CET 8:05 PM CET
Moon 1:21 AM CET (2/3) 12:04 PM CET (2/3)
Length of Visible Light 11h 21m
Length of Day
10h 27m
Waning Gibbous, 51% of the Moon is Illuminated
Feb 3
Waning Gibbous
Feb 3
Last Quarter
Feb 10
New
Feb 17
First Quarter
Feb 25
Full

Hourly Weather History & Observations

Time (CET) Temp. Dew Point Humidity Pressure Visibility Wind Dir Wind Speed Gust Speed Precip Events Conditions
1:00 AM 56 °F 23 °F 17% 30.16 in - NW 29.9 mph - -  
5:00 AM 57.2 °F 24.8 °F 29% 30.15 in - NW 23.0 mph 35.7 mph N/A   Clear
5:30 AM 55.4 °F 23.0 °F 29% 30.15 in - NW 19.6 mph - N/A   Clear
6:00 AM 55.4 °F 23.0 °F 29% 30.15 in - WNW 24.2 mph 36.8 mph N/A   Clear
6:30 AM 55.4 °F 23.0 °F 29% 30.18 in - WNW 21.9 mph - N/A   Clear
7:00 AM 54 °F 20 °F 15% 30.20 in 16 mi NW 25.3 mph - -  
7:00 AM 55.4 °F 21.2 °F 26% 30.18 in - NW 25.3 mph - N/A   Clear
7:30 AM 55.4 °F 23.0 °F 29% 30.18 in - WNW 13.8 mph 26.5 mph N/A   Clear
8:00 AM 55.4 °F 23.0 °F 29% 30.21 in 6.2 mi WNW 17.3 mph - N/A   Partly Cloudy
8:30 AM 55.4 °F 21.2 °F 26% 30.21 in 6.2 mi WNW 18.4 mph 33.4 mph N/A   Partly Cloudy
9:00 AM 55.4 °F 21.2 °F 26% 30.18 in 6.2 mi WNW 24.2 mph 40.3 mph N/A   Partly Cloudy
9:30 AM 57.2 °F 19.4 °F 23% 30.18 in 6.2 mi NW 26.5 mph 44.9 mph N/A   Partly Cloudy
10:00 AM 59.0 °F 19.4 °F 22% 30.21 in 6.2 mi NNW 20.7 mph 32.2 mph N/A   Partly Cloudy
10:30 AM 59.0 °F 21.2 °F 23% 30.21 in 6.2 mi NNW 24.2 mph 36.8 mph N/A   Partly Cloudy
11:00 AM 60.8 °F 17.6 °F 19% 30.24 in 6.2 mi NW 18.4 mph - N/A   Partly Cloudy
11:30 AM 62.6 °F 17.6 °F 18% 30.24 in 6.2 mi NNW 13.8 mph 27.6 mph N/A   Partly Cloudy
12:00 PM 60.8 °F 19.4 °F 20% 30.24 in 6.2 mi NW 25.3 mph 39.1 mph N/A   Partly Cloudy
12:30 PM 62.6 °F 17.6 °F 18% 30.24 in 6.2 mi NW 20.7 mph - N/A   Partly Cloudy
1:00 PM 61 °F 18 °F 9% 30.25 in 25 mi NW 20.7 mph - -  
1:00 PM 62.6 °F 19.4 °F 19% 30.24 in - NW 19.6 mph 33.4 mph N/A   Clear
1:30 PM 64.4 °F 21.2 °F 19% 30.24 in - WNW 17.3 mph 28.8 mph N/A   Clear
2:30 PM 64.4 °F 19.4 °F 18% 30.21 in - WNW 19.6 mph - N/A   Clear
3:30 PM 66.2 °F 15.8 °F 14% 30.21 in - NW 13.8 mph - N/A   Clear
4:00 PM 66.2 °F 14.0 °F 13% 30.24 in 6.2 mi WNW 8.1 mph - N/A   Partly Cloudy
4:30 PM 66.2 °F 14.0 °F 13% 30.24 in 6.2 mi West 9.2 mph - N/A   Partly Cloudy
5:00 PM 60.8 °F 37.4 °F 42% 30.24 in 6.2 mi SSE 11.5 mph - N/A   Partly Cloudy
5:30 PM 59.0 °F 39.2 °F 48% 30.27 in 6.2 mi SSE 12.7 mph - N/A   Partly Cloudy
6:00 PM 59.0 °F 37.4 °F 45% 30.30 in 6.2 mi SSE 11.5 mph - N/A   Partly Cloudy
6:30 PM 57.2 °F 37.4 °F 48% 30.30 in 6.2 mi South 9.2 mph - N/A   Partly Cloudy
7:00 PM 55 °F 33 °F 32% 30.32 in 19 mi South 9.2 mph - -   Clear
7:00 PM 57.2 °F 35.6 °F 44% 30.30 in 6.2 mi South 8.1 mph - N/A   Partly Cloudy
7:30 PM 57.2 °F 39.2 °F 51% 30.33 in 6.2 mi South 6.9 mph - N/A   Partly Cloudy
8:00 PM 55.4 °F 39.2 °F 54% 30.33 in - SSW 5.8 mph - N/A   Clear
8:30 PM 53.6 °F 37.4 °F 54% 30.33 in - NW 3.5 mph - N/A   Clear
9:00 PM 51.8 °F 37.4 °F 58% 30.36 in - NNW 4.6 mph - N/A   Clear
9:30 PM 51.8 °F 37.4 °F 58% 30.36 in - NNW 4.6 mph - N/A   Clear
10:00 PM 50.0 °F 37.4 °F 62% 30.36 in - NW 4.6 mph - N/A   Clear
10:30 PM 50.0 °F 37.4 °F 62% 30.36 in - NNW 6.9 mph - N/A   Clear